24°C
Woerden, The Nederlands
Taal:  Nederlands
Updated19/04/2019 17:00 
 
WeerStation Woerden Historical Data
 
Daily Summary for April 19, 2019 Units:  Metric    English   Both
Daily Weekly Monthly Yearly Custom
  Current: High: Low: Average:
Temperature: 23.6 °C 23.7 °C 10.7 °C 16.1 °C
Dew Point: 7.2 °C 8.2 °C 4.4 °C 5.7 °C
Humidity: 35% 71% 33% 52%
Wind Speed: 14.5km/h 25.9km/h 3.7km/h 11.7km/h
Wind Gust: 10.0km/h 15.9km/h - -
WindSE - - ENE
Pressure: 1026.7 hPa 1028.0 hPa 1025.5 hPa -
Precipitation: 0.0 mm      
Historical Graphs
 
 
Tabular Data for April 19, 2019
Time Temperature Dew Point Pressure Wind Wind Speed Wind Gust Humidity Rainfall Rate (Hourly) solar
00:04 15.3 °C 4.9 °C 1025.6 hPa NE 14.8 km/h 7.2 km/h 50% 0.0 mm 0.00 W/m2
00:09 15.3 °C 4.9 °C 1025.5 hPa ENE 9.3 km/h 7.6 km/h 50% 0.0 mm 0.00 W/m2
00:14 15.5 °C 4.8 °C 1025.5 hPa NE 9.7 km/h 8.4 km/h 49% 0.0 mm 0.00 W/m2
00:19 15.6 °C 4.6 °C 1025.5 hPa NNE 9.7 km/h 8.4 km/h 48% 0.0 mm 0.00 W/m2
00:24 15.6 °C 4.6 °C 1025.6 hPa NE 11.1 km/h 6.9 km/h 48% 0.0 mm 0.00 W/m2
00:29 15.3 °C 4.7 °C 1025.6 hPa NE 14.8 km/h 8.5 km/h 49% 0.0 mm 0.00 W/m2
00:34 15.2 °C 4.8 °C 1025.7 hPa NE 13.0 km/h 8.2 km/h 50% 0.0 mm 0.00 W/m2
00:39 14.9 °C 4.6 °C 1025.7 hPa NE 13.0 km/h 7.4 km/h 50% 0.0 mm 0.00 W/m2
00:44 14.8 °C 4.8 °C 1025.7 hPa NE 9.3 km/h 6.8 km/h 51% 0.0 mm 0.00 W/m2
00:49 14.8 °C 4.5 °C 1025.7 hPa ENE 9.7 km/h 7.2 km/h 50% 0.0 mm 0.00 W/m2
00:54 14.8 °C 4.5 °C 1025.8 hPa NE 11.1 km/h 6.8 km/h 50% 0.0 mm 0.00 W/m2
00:59 14.8 °C 4.7 °C 1025.8 hPa NE 8.0 km/h 6.4 km/h 51% 0.0 mm 0.00 W/m2
01:04 14.8 °C 4.8 °C 1025.8 hPa NE 7.4 km/h 5.6 km/h 51% 0.0 mm 0.00 W/m2
01:09 14.8 °C 4.4 °C 1025.8 hPa NE 9.3 km/h 7.4 km/h 50% 0.0 mm 0.00 W/m2
01:14 14.8 °C 4.4 °C 1025.8 hPa NE 9.3 km/h 6.8 km/h 50% 0.0 mm 0.00 W/m2
01:19 14.8 °C 4.7 °C 1025.9 hPa NE 7.4 km/h 5.5 km/h 51% 0.0 mm 0.00 W/m2
01:24 14.6 °C 4.5 °C 1025.9 hPa NE 8.0 km/h 6.4 km/h 51% 0.0 mm 0.00 W/m2
01:29 14.3 °C 4.6 °C 1026.0 hPa NE 7.4 km/h 6.3 km/h 52% 0.0 mm 0.00 W/m2
01:34 14.0 °C 4.6 °C 1025.9 hPa NE 7.4 km/h 5.6 km/h 53% 0.0 mm 0.00 W/m2
01:39 13.8 °C 4.6 °C 1025.9 hPa NE 6.4 km/h 5.5 km/h 54% 0.0 mm 0.00 W/m2
01:44 13.7 °C 4.6 °C 1025.9 hPa NE 9.3 km/h 7.1 km/h 54% 0.0 mm 0.00 W/m2
01:49 13.7 °C 4.5 °C 1025.9 hPa NE 7.4 km/h 5.8 km/h 54% 0.0 mm 0.00 W/m2
01:54 13.7 °C 4.5 °C 1025.9 hPa NE 7.4 km/h 6.1 km/h 54% 0.0 mm 0.00 W/m2
01:59 13.7 °C 4.6 °C 1025.8 hPa NE 8.0 km/h 5.3 km/h 54% 0.0 mm 0.00 W/m2
02:04 13.8 °C 4.6 °C 1025.8 hPa NE 7.4 km/h 3.1 km/h 54% 0.0 mm 0.00 W/m2
02:09 13.7 °C 4.6 °C 1025.9 hPa NE 6.4 km/h 4.0 km/h 54% 0.0 mm 0.00 W/m2
02:14 13.6 °C 4.4 °C 1025.8 hPa NE 7.4 km/h 4.7 km/h 54% 0.0 mm 0.00 W/m2
02:19 13.3 °C 4.5 °C 1025.8 hPa NE 7.4 km/h 6.1 km/h 55% 0.0 mm 0.00 W/m2
02:24 13.1 °C 4.5 °C 1025.9 hPa NE 7.4 km/h 5.6 km/h 56% 0.0 mm 0.00 W/m2
02:29 12.8 °C 4.5 °C 1025.8 hPa NNE 9.3 km/h 6.6 km/h 57% 0.0 mm 0.00 W/m2
02:34 12.6 °C 4.8 °C 1025.9 hPa NNE 13.0 km/h 7.6 km/h 59% 0.0 mm 0.00 W/m2
02:39 12.2 °C 4.9 °C 1026.0 hPa NNE 12.9 km/h 7.6 km/h 61% 0.0 mm 0.00 W/m2
02:44 11.9 °C 4.8 °C 1026.0 hPa NNE 14.8 km/h 8.5 km/h 62% 0.0 mm 0.00 W/m2
02:49 12.0 °C 4.9 °C 1025.9 hPa NE 13.0 km/h 8.5 km/h 62% 0.0 mm 0.00 W/m2
02:54 12.1 °C 5.1 °C 1025.9 hPa NE 11.3 km/h 9.3 km/h 62% 0.0 mm 0.00 W/m2
02:59 12.2 °C 4.9 °C 1025.8 hPa NE 16.7 km/h 11.6 km/h 61% 0.0 mm 0.00 W/m2
03:04 12.3 °C 5.0 °C 1025.8 hPa NNE 14.8 km/h 10.9 km/h 61% 0.0 mm 0.00 W/m2
03:09 12.4 °C 4.9 °C 1025.8 hPa NNE 18.5 km/h 10.8 km/h 60% 0.0 mm 0.00 W/m2
03:14 12.4 °C 4.9 °C 1025.9 hPa NE 11.3 km/h 10.3 km/h 60% 0.0 mm 0.00 W/m2
03:19 12.4 °C 4.9 °C 1026.0 hPa NNE 16.7 km/h 10.3 km/h 60% 0.0 mm 0.00 W/m2
03:24 12.4 °C 4.9 °C 1025.9 hPa NNE 13.0 km/h 9.5 km/h 60% 0.0 mm 0.00 W/m2
03:29 12.4 °C 4.9 °C 1026.0 hPa NNE 16.7 km/h 8.8 km/h 60% 0.0 mm 0.00 W/m2
03:34 12.4 °C 4.8 °C 1026.0 hPa NNE 13.0 km/h 8.4 km/h 60% 0.0 mm 0.00 W/m2
03:39 12.2 °C 4.9 °C 1026.0 hPa NE 16.7 km/h 9.3 km/h 61% 0.0 mm 0.00 W/m2
03:44 12.2 °C 4.9 °C 1026.0 hPa NE 12.9 km/h 7.1 km/h 61% 0.0 mm 0.00 W/m2
03:49 12.1 °C 4.8 °C 1026.0 hPa NE 14.8 km/h 8.7 km/h 61% 0.0 mm 0.00 W/m2
03:54 12.2 °C 4.9 °C 1026.0 hPa NNE 16.7 km/h 8.2 km/h 61% 0.0 mm 0.00 W/m2
03:59 12.2 °C 4.9 °C 1026.0 hPa NNE 14.8 km/h 7.6 km/h 61% 0.0 mm 0.00 W/m2
04:04 12.1 °C 4.8 °C 1026.0 hPa NNE 11.1 km/h 8.2 km/h 61% 0.0 mm 0.00 W/m2
04:09 12.1 °C 4.8 °C 1026.1 hPa NE 11.1 km/h 7.4 km/h 61% 0.0 mm 0.00 W/m2
04:14 12.1 °C 4.8 °C 1026.0 hPa NE 9.7 km/h 6.9 km/h 61% 0.0 mm 0.00 W/m2
04:19 12.0 °C 4.9 °C 1026.1 hPa NE 9.7 km/h 7.9 km/h 62% 0.0 mm 0.00 W/m2
04:24 11.9 °C 4.9 °C 1026.1 hPa NNE 11.1 km/h 7.7 km/h 62% 0.0 mm 0.00 W/m2
04:29 11.8 °C 4.8 °C 1026.2 hPa NNE 9.3 km/h 6.4 km/h 62% 0.0 mm 0.00 W/m2
04:34 11.8 °C 4.7 °C 1026.2 hPa NNE 9.3 km/h 7.2 km/h 62% 0.0 mm 0.00 W/m2
04:39 11.8 °C 4.7 °C 1026.2 hPa NE 13.0 km/h 8.2 km/h 62% 0.0 mm 0.00 W/m2
04:44 11.7 °C 4.9 °C 1026.3 hPa NNE 9.7 km/h 6.9 km/h 63% 0.0 mm 0.00 W/m2
04:49 11.7 °C 4.8 °C 1026.2 hPa NE 9.3 km/h 7.2 km/h 63% 0.0 mm 0.00 W/m2
04:54 11.6 °C 4.7 °C 1026.3 hPa NNE 9.3 km/h 6.8 km/h 63% 0.0 mm 0.00 W/m2
04:59 11.4 °C 4.9 °C 1026.3 hPa NNE 8.0 km/h 6.6 km/h 64% 0.0 mm 0.00 W/m2
05:04 11.3 °C 4.8 °C 1026.3 hPa NNE 13.0 km/h 6.4 km/h 64% 0.0 mm 0.00 W/m2
05:09 11.3 °C 4.9 °C 1026.4 hPa NNE 9.3 km/h 6.6 km/h 65% 0.0 mm 0.00 W/m2
05:14 11.2 °C 4.9 °C 1026.3 hPa NNE 9.7 km/h 7.4 km/h 65% 0.0 mm 0.00 W/m2
05:19 11.3 °C 4.9 °C 1026.3 hPa NE 9.7 km/h 6.9 km/h 65% 0.0 mm 0.00 W/m2
05:24 11.2 °C 4.9 °C 1026.3 hPa NE 9.3 km/h 5.1 km/h 65% 0.0 mm 0.00 W/m2
05:29 11.2 °C 4.8 °C 1026.4 hPa NNE 5.6 km/h 5.0 km/h 65% 0.0 mm 0.00 W/m2
05:34 11.1 °C 5.0 °C 1026.4 hPa NNE 9.3 km/h 6.3 km/h 66% 0.0 mm 0.00 W/m2
05:39 11.1 °C 4.9 °C 1026.4 hPa NE 11.1 km/h 6.8 km/h 66% 0.0 mm 0.00 W/m2
05:44 11.0 °C 5.1 °C 1026.4 hPa NNE 9.3 km/h 5.8 km/h 67% 0.0 mm 0.00 W/m2
05:49 11.0 °C 4.9 °C 1026.4 hPa NE 7.4 km/h 5.8 km/h 66% 0.0 mm 0.00 W/m2
05:54 11.1 °C 4.9 °C 1026.4 hPa NNE 7.4 km/h 5.1 km/h 66% 0.0 mm 0.00 W/m2
05:59 11.0 °C 4.9 °C 1026.4 hPa NNE 9.3 km/h 6.0 km/h 66% 0.0 mm 0.00 W/m2
06:04 11.0 °C 4.9 °C 1026.5 hPa NNE 9.3 km/h 7.6 km/h 66% 0.0 mm 0.00 W/m2
06:09 11.0 °C 5.1 °C 1026.5 hPa NNE 9.7 km/h 7.2 km/h 67% 0.0 mm 0.00 W/m2
06:14 10.9 °C 5.1 °C 1026.5 hPa NNE 13.0 km/h 7.1 km/h 67% 0.0 mm 0.00 W/m2
06:19 10.9 °C 5.0 °C 1026.5 hPa NNE 11.1 km/h 6.6 km/h 67% 0.0 mm 0.00 W/m2
06:24 10.9 °C 5.0 °C 1026.4 hPa NNE 8.0 km/h 6.4 km/h 67% 0.0 mm 0.00 W/m2
06:29 10.8 °C 4.9 °C 1026.5 hPa NNE 9.3 km/h 5.8 km/h 67% 0.0 mm 0.00 W/m2
06:34 10.8 °C 4.9 °C 1026.7 hPa NNE 7.4 km/h 5.8 km/h 67% 0.0 mm 7.00 W/m2
06:39 10.8 °C 4.9 °C 1026.6 hPa NE 5.6 km/h 5.0 km/h 67% 0.0 mm 9.00 W/m2
06:44 10.8 °C 4.9 °C 1026.7 hPa NE 7.4 km/h 4.8 km/h 67% 0.0 mm 12.00 W/m2
06:49 10.8 °C 4.9 °C 1026.8 hPa NE 5.6 km/h 3.2 km/h 67% 0.0 mm 18.00 W/m2
06:54 10.9 °C 4.8 °C 1026.8 hPa NE 5.6 km/h 3.9 km/h 66% 0.0 mm 26.00 W/m2
06:59 10.9 °C 5.0 °C 1026.8 hPa NE 5.6 km/h 3.1 km/h 67% 0.0 mm 30.00 W/m2
07:04 10.8 °C 5.1 °C 1026.9 hPa NE 5.6 km/h 3.9 km/h 68% 0.0 mm 32.00 W/m2
07:09 10.7 °C 5.0 °C 1026.9 hPa NNE 5.6 km/h 5.0 km/h 68% 0.0 mm 33.00 W/m2
07:14 10.7 °C 5.0 °C 1026.9 hPa NE 7.4 km/h 5.5 km/h 68% 0.0 mm 30.00 W/m2
07:19 10.8 °C 4.9 °C 1026.9 hPa NE 8.0 km/h 6.6 km/h 67% 0.0 mm 30.00 W/m2
07:24 10.9 °C 4.8 °C 1027.0 hPa NE 7.4 km/h 5.1 km/h 66% 0.0 mm 28.00 W/m2
07:29 10.9 °C 4.8 °C 1027.1 hPa NE 8.0 km/h 6.0 km/h 66% 0.0 mm 39.00 W/m2
07:34 10.9 °C 4.8 °C 1027.1 hPa NNE 5.6 km/h 3.7 km/h 66% 0.0 mm 53.00 W/m2
07:39 10.9 °C 4.8 °C 1027.2 hPa NNE 5.6 km/h 3.2 km/h 66% 0.0 mm 62.00 W/m2
07:44 10.9 °C 5.1 °C 1027.2 hPa NNE 5.6 km/h 2.9 km/h 67% 0.0 mm 97.00 W/m2
07:49 10.9 °C 5.0 °C 1027.3 hPa NNE 5.6 km/h 3.9 km/h 67% 0.0 mm 109.00 W/m2
07:54 10.8 °C 5.1 °C 1027.3 hPa NNE 5.6 km/h 4.0 km/h 68% 0.0 mm 116.00 W/m2
07:59 10.8 °C 5.3 °C 1027.3 hPa NNE 5.6 km/h 3.9 km/h 69% 0.0 mm 111.00 W/m2
08:04 10.7 °C 5.4 °C 1027.3 hPa NNE 5.6 km/h 3.5 km/h 70% 0.0 mm 90.00 W/m2
08:09 10.8 °C 5.8 °C 1027.3 hPa NNE 5.6 km/h 3.4 km/h 71% 0.0 mm 105.00 W/m2
08:14 10.9 °C 5.9 °C 1027.3 hPa NNE 4.8 km/h 2.1 km/h 71% 0.0 mm 107.00 W/m2
08:19 11.1 °C 6.0 °C 1027.3 hPa NNE 7.4 km/h 5.0 km/h 71% 0.0 mm 97.00 W/m2
08:24 11.0 °C 5.9 °C 1027.3 hPa NNE 5.6 km/h 4.8 km/h 71% 0.0 mm 169.00 W/m2
08:29 11.1 °C 6.0 °C 1027.4 hPa NNE 5.6 km/h 4.5 km/h 71% 0.0 mm 178.00 W/m2
08:34 11.3 °C 6.3 °C 1027.4 hPa NNE 5.6 km/h 5.8 km/h 71% 0.0 mm 179.00 W/m2
08:39 11.6 °C 6.5 °C 1027.4 hPa NNE 3.7 km/h 2.6 km/h 71% 0.0 mm 207.00 W/m2
08:44 12.1 °C 6.6 °C 1027.5 hPa NNE 5.6 km/h 3.7 km/h 69% 0.0 mm 227.00 W/m2
08:49 12.6 °C 6.2 °C 1027.5 hPa NNE 7.4 km/h 5.3 km/h 65% 0.0 mm 236.00 W/m2
08:54 12.9 °C 6.3 °C 1027.6 hPa NNE 5.6 km/h 4.5 km/h 64% 0.0 mm 230.00 W/m2
08:59 13.2 °C 6.6 °C 1027.6 hPa NNE 7.4 km/h 2.9 km/h 64% 0.0 mm 246.00 W/m2
09:04 13.6 °C 6.7 °C 1027.5 hPa NE 9.3 km/h 6.0 km/h 63% 0.0 mm 246.00 W/m2
09:09 14.2 °C 5.8 °C 1027.7 hPa NE 9.7 km/h 6.9 km/h 57% 0.0 mm 229.00 W/m2
09:14 14.6 °C 5.1 °C 1027.7 hPa ENE 14.8 km/h 6.9 km/h 53% 0.0 mm 258.00 W/m2
09:19 14.8 °C 5.3 °C 1027.7 hPa ENE 8.0 km/h 7.2 km/h 53% 0.0 mm 309.00 W/m2
09:24 15.1 °C 5.0 °C 1027.7 hPa ENE 11.3 km/h 9.2 km/h 51% 0.0 mm 332.00 W/m2
09:29 15.3 °C 5.2 °C 1027.7 hPa East 9.3 km/h 6.0 km/h 51% 0.0 mm 353.00 W/m2
09:34 15.7 °C 5.6 °C 1027.7 hPa East 8.0 km/h 5.3 km/h 51% 0.0 mm 376.00 W/m2
09:39 16.0 °C 5.6 °C 1027.8 hPa ENE 14.8 km/h 7.6 km/h 50% 0.0 mm 396.00 W/m2
09:44 16.2 °C 5.8 °C 1027.8 hPa ENE 11.1 km/h 5.1 km/h 50% 0.0 mm 406.00 W/m2
09:49 16.5 °C 6.1 °C 1027.8 hPa East 11.1 km/h 6.4 km/h 50% 0.0 mm 425.00 W/m2
09:54 16.6 °C 5.8 °C 1027.9 hPa ESE 16.7 km/h 10.6 km/h 49% 0.0 mm 425.00 W/m2
09:59 16.8 °C 6.0 °C 1028.0 hPa ESE 13.0 km/h 7.9 km/h 49% 0.0 mm 348.00 W/m2
10:04 16.7 °C 5.9 °C 1028.0 hPa ENE 13.0 km/h 7.7 km/h 49% 0.0 mm 457.00 W/m2
10:09 16.8 °C 5.7 °C 1028.0 hPa ENE 12.9 km/h 7.1 km/h 48% 0.0 mm 471.00 W/m2
10:14 16.9 °C 6.2 °C 1028.0 hPa East 13.0 km/h 10.3 km/h 49% 0.0 mm 482.00 W/m2
10:19 16.9 °C 5.6 °C 1028.0 hPa ENE 18.5 km/h 10.9 km/h 47% 0.0 mm 494.00 W/m2
10:24 17.2 °C 6.7 °C 1028.0 hPa ESE 18.5 km/h 6.1 km/h 50% 0.0 mm 510.00 W/m2
10:29 17.4 °C 6.3 °C 1028.0 hPa East 12.9 km/h 7.7 km/h 48% 0.0 mm 512.00 W/m2
10:34 17.4 °C 5.7 °C 1027.9 hPa East 20.4 km/h 12.6 km/h 46% 0.0 mm 520.00 W/m2
10:39 17.7 °C 6.2 °C 1028.0 hPa ENE 14.8 km/h 9.7 km/h 47% 0.0 mm 540.00 W/m2
10:44 17.9 °C 6.4 °C 1028.0 hPa ESE 11.1 km/h 6.3 km/h 47% 0.0 mm 483.00 W/m2
10:49 18.2 °C 6.1 °C 1028.0 hPa East 14.5 km/h 9.0 km/h 45% 0.0 mm 564.00 W/m2
10:54 18.3 °C 6.1 °C 1027.9 hPa ESE 13.0 km/h 9.2 km/h 45% 0.0 mm 571.00 W/m2
10:59 18.6 °C 6.7 °C 1027.9 hPa East 7.4 km/h 6.3 km/h 46% 0.0 mm 580.00 W/m2
11:04 18.7 °C 6.6 °C 1027.9 hPa ENE 13.0 km/h 7.9 km/h 45% 0.0 mm 585.00 W/m2
11:09 18.9 °C 6.7 °C 1027.9 hPa ESE 11.1 km/h 8.4 km/h 45% 0.0 mm 596.00 W/m2
11:14 19.0 °C 6.8 °C 1027.9 hPa East 11.1 km/h 6.9 km/h 45% 0.0 mm 608.00 W/m2
11:19 19.3 °C 6.7 °C 1028.0 hPa NE 11.3 km/h 5.6 km/h 44% 0.0 mm 613.00 W/m2
11:24 19.3 °C 6.4 °C 1027.9 hPa ENE 16.7 km/h 10.9 km/h 43% 0.0 mm 626.00 W/m2
11:29 19.3 °C 6.7 °C 1027.9 hPa NE 16.1 km/h 10.3 km/h 44% 0.0 mm 635.00 W/m2
11:34 19.3 °C 6.1 °C 1027.9 hPa East 9.3 km/h 5.0 km/h 42% 0.0 mm 638.00 W/m2
11:39 19.4 °C 5.8 °C 1027.9 hPa NE 14.8 km/h 8.8 km/h 41% 0.0 mm 647.00 W/m2
11:44 19.6 °C 6.3 °C 1027.8 hPa NE 18.5 km/h 13.0 km/h 42% 0.0 mm 657.00 W/m2
11:49 19.6 °C 6.3 °C 1027.9 hPa ENE 13.0 km/h 6.4 km/h 42% 0.0 mm 664.00 W/m2
11:54 19.8 °C 6.2 °C 1027.6 hPa NE 18.5 km/h 12.7 km/h 41% 0.0 mm 671.00 W/m2
11:59 19.8 °C 6.8 °C 1027.6 hPa NNE 13.0 km/h 11.6 km/h 43% 0.0 mm 680.00 W/m2
12:04 19.8 °C 7.2 °C 1027.6 hPa North 13.0 km/h 9.8 km/h 44% 0.0 mm 684.00 W/m2
12:09 19.8 °C 6.9 °C 1027.6 hPa NNW 16.7 km/h 12.9 km/h 43% 0.0 mm 687.00 W/m2
12:14 19.8 °C 7.9 °C 1027.6 hPa NNE 16.7 km/h 9.5 km/h 46% 0.0 mm 696.00 W/m2
12:19 19.9 °C 8.2 °C 1027.5 hPa NE 14.8 km/h 8.8 km/h 47% 0.0 mm 703.00 W/m2
12:24 19.8 °C 8.2 °C 1027.6 hPa NE 18.5 km/h 11.7 km/h 47% 0.0 mm 694.00 W/m2
12:29 19.9 °C 7.9 °C 1027.4 hPa North 16.7 km/h 13.0 km/h 46% 0.0 mm 675.00 W/m2
12:34 20.1 °C 7.4 °C 1027.5 hPa North 18.5 km/h 12.7 km/h 44% 0.0 mm 650.00 W/m2
12:39 20.3 °C 8.0 °C 1027.3 hPa NE 14.8 km/h 10.5 km/h 45% 0.0 mm 628.00 W/m2
12:44 20.3 °C 7.0 °C 1027.3 hPa NE 18.5 km/h 14.2 km/h 42% 0.0 mm 598.00 W/m2
12:49 20.4 °C 6.7 °C 1027.3 hPa NNE 14.8 km/h 9.8 km/h 41% 0.0 mm 578.00 W/m2
12:54 20.5 °C 6.4 °C 1027.4 hPa NE 16.7 km/h 10.5 km/h 40% 0.0 mm 577.00 W/m2
12:59 20.7 °C 6.6 °C 1027.4 hPa NE 25.9 km/h 14.3 km/h 40% 0.0 mm 587.00 W/m2
13:04 20.8 °C 6.3 °C 1027.3 hPa NE 20.4 km/h 15.9 km/h 39% 0.0 mm 615.00 W/m2
13:09 21.0 °C 7.2 °C 1027.3 hPa NNE 16.7 km/h 8.8 km/h 41% 0.0 mm 647.00 W/m2
13:14 21.3 °C 7.1 °C 1027.4 hPa East 18.5 km/h 11.4 km/h 40% 0.0 mm 691.00 W/m2
13:19 21.6 °C 6.7 °C 1027.3 hPa ENE 16.7 km/h 6.8 km/h 38% 0.0 mm 722.00 W/m2
13:24 21.9 °C 6.6 °C 1027.4 hPa ENE 16.7 km/h 8.4 km/h 37% 0.0 mm 738.00 W/m2
13:29 21.9 °C 6.6 °C 1027.4 hPa ENE 16.1 km/h 10.6 km/h 37% 0.0 mm 747.00 W/m2
13:34 21.8 °C 6.5 °C 1027.3 hPa East 18.5 km/h 11.7 km/h 37% 0.0 mm 749.00 W/m2
13:39 21.9 °C 6.6 °C 1027.4 hPa ESE 13.0 km/h 6.9 km/h 37% 0.0 mm 744.00 W/m2
13:44 22.2 °C 7.2 °C 1027.3 hPa ESE 16.7 km/h 10.3 km/h 38% 0.0 mm 744.00 W/m2
13:49 22.1 °C 6.7 °C 1027.3 hPa East 18.5 km/h 10.3 km/h 37% 0.0 mm 751.00 W/m2
13:54 22.3 °C 7.3 °C 1027.2 hPa ESE 9.3 km/h 4.0 km/h 38% 0.0 mm 745.00 W/m2
13:59 22.4 °C 7.0 °C 1027.2 hPa ESE 18.5 km/h 11.6 km/h 37% 0.0 mm 740.00 W/m2
14:04 22.1 °C 6.7 °C 1027.0 hPa ENE 18.5 km/h 12.9 km/h 37% 0.0 mm 740.00 W/m2
14:09 22.3 °C 6.9 °C 1027.1 hPa SE 11.3 km/h 7.2 km/h 37% 0.0 mm 735.00 W/m2
14:14 22.5 °C 7.1 °C 1027.1 hPa East 13.0 km/h 8.0 km/h 37% 0.0 mm 733.00 W/m2
14:19 22.4 °C 7.0 °C 1027.1 hPa NE 5.6 km/h 3.9 km/h 37% 0.0 mm 735.00 W/m2
14:24 22.8 °C 6.9 °C 1027.1 hPa ESE 18.5 km/h 12.9 km/h 36% 0.0 mm 740.00 W/m2
14:29 22.8 °C 6.2 °C 1027.1 hPa East 11.3 km/h 9.8 km/h 34% 0.0 mm 737.00 W/m2
14:34 22.8 °C 6.9 °C 1027.2 hPa ESE 9.3 km/h 4.8 km/h 36% 0.0 mm 731.00 W/m2
14:39 22.9 °C 6.2 °C 1027.2 hPa East 9.3 km/h 4.8 km/h 34% 0.0 mm 740.00 W/m2
14:44 22.8 °C 6.6 °C 1027.3 hPa SE 18.5 km/h 13.0 km/h 35% 0.0 mm 731.00 W/m2
14:49 22.9 °C 6.6 °C 1027.2 hPa SE 14.8 km/h 10.6 km/h 35% 0.0 mm 731.00 W/m2
14:54 23.1 °C 6.8 °C 1027.1 hPa SE 13.0 km/h 10.6 km/h 35% 0.0 mm 728.00 W/m2
14:59 23.0 °C 5.8 °C 1027.1 hPa SSE 16.7 km/h 9.5 km/h 33% 0.0 mm 728.00 W/m2
15:04 23.1 °C 6.3 °C 1027.1 hPa SE 14.8 km/h 11.9 km/h 34% 0.0 mm 717.00 W/m2
15:09 23.1 °C 6.8 °C 1027.1 hPa SSE 13.0 km/h 6.9 km/h 35% 0.0 mm 708.00 W/m2
15:14 23.3 °C 6.9 °C 1027.1 hPa SSE 14.8 km/h 7.1 km/h 35% 0.0 mm 703.00 W/m2
15:19 23.3 °C 6.6 °C 1027.0 hPa ESE 14.5 km/h 10.6 km/h 34% 0.0 mm 696.00 W/m2
15:24 23.0 °C 6.3 °C 1027.0 hPa SE 16.7 km/h 11.3 km/h 34% 0.0 mm 693.00 W/m2
15:29 23.2 °C 6.5 °C 1027.0 hPa SE 16.1 km/h 12.1 km/h 34% 0.0 mm 684.00 W/m2
15:34 23.4 °C 6.6 °C 1027.0 hPa SE 16.7 km/h 11.1 km/h 34% 0.0 mm 679.00 W/m2
15:39 23.3 °C 6.1 °C 1027.0 hPa ESE 18.5 km/h 10.5 km/h 33% 0.0 mm 664.00 W/m2
15:44 23.3 °C 7.4 °C 1027.0 hPa SSE 11.1 km/h 6.8 km/h 36% 0.0 mm 657.00 W/m2
15:49 23.4 °C 7.1 °C 1026.9 hPa SE 20.4 km/h 12.2 km/h 35% 0.0 mm 652.00 W/m2
15:54 23.3 °C 7.4 °C 1026.9 hPa SE 18.5 km/h 13.4 km/h 36% 0.0 mm 643.00 W/m2
15:59 23.4 °C 6.7 °C 1026.9 hPa SSE 14.8 km/h 8.2 km/h 34% 0.0 mm 633.00 W/m2
16:04 23.4 °C 6.7 °C 1026.9 hPa SE 16.7 km/h 9.3 km/h 34% 0.0 mm 624.00 W/m2
16:09 23.5 °C 6.3 °C 1026.8 hPa SE 14.8 km/h 7.7 km/h 33% 0.0 mm 619.00 W/m2
16:14 23.6 °C 6.3 °C 1026.8 hPa SE 13.0 km/h 8.4 km/h 33% 0.0 mm 605.00 W/m2
16:19 23.4 °C 7.1 °C 1026.7 hPa ESE 11.1 km/h 8.4 km/h 35% 0.0 mm 598.00 W/m2
16:24 23.5 °C 7.9 °C 1026.8 hPa ESE 7.4 km/h 3.7 km/h 37% 0.0 mm 591.00 W/m2
16:29 23.3 °C 6.2 °C 1026.9 hPa ESE 9.3 km/h 4.2 km/h 33% 0.0 mm 577.00 W/m2
16:34 23.4 °C 6.7 °C 1026.7 hPa ESE 11.1 km/h 6.6 km/h 34% 0.0 mm 568.00 W/m2
16:39 23.4 °C 7.5 °C 1026.8 hPa SSE 9.3 km/h 7.1 km/h 36% 0.0 mm 554.00 W/m2
16:44 23.6 °C 7.2 °C 1026.7 hPa ESE 14.8 km/h 9.2 km/h 35% 0.0 mm 545.00 W/m2
16:49 23.7 °C 6.9 °C 1026.7 hPa SE 14.8 km/h 10.9 km/h 34% 0.0 mm 531.00 W/m2
16:54 23.7 °C 6.9 °C 1026.7 hPa SSE 9.3 km/h 5.5 km/h 34% 0.0 mm 519.00 W/m2
16:59 23.6 °C 7.2 °C 1026.7 hPa SE 14.5 km/h 10.0 km/h 35% 0.0 mm 512.00 W/m2
Juneau County Weather
Compliments of Weather Underground - 2.5 mb